Location: Fours
(44.3167°N, 6.7000°E)
Time: 12:11:10
(UTC+00:00)

Cosmos 1943 Rocket - Pass Details

Date: 30 November 2020
Orbit: 811 x 845 km, 71.0° (Epoch: 25 January)

Event Time Altitude Azimuth Distance (km) Brightness Sun altitude
Rises 18:12:30 0° 326° (NW) 3,360 5.7 -23.8°
Reaches altitude 10° 18:15:08 10° 316° (NW) 2,428 5.0 -24.3°
Maximum altitude 18:19:59 32° 256° (WSW) 1,394 3.9 -25.2°
Drops below altitude 10° 18:24:51 10° 194° (SSW) 2,433 4.8 -26.0°
Sets 18:27:31 0° 185° (S) 3,368 5.5 -26.5°
